This demonstration page uses our WeatherBlox Daily Observations layout. Learn more.

Left ArrowRight Arrow

39.51506, -84.39828

Hourly Observations for June 6, 2019

Temp ( °F °C ) Dew Point ( °F °C ) Humidity (%) Winds ( mph kmh ) Pressure ( in mb ) Visibility ( mi km ) Precip ( " mm )
12:15 am 00:15 Clear 66 19 65 18.3 96 96 SW 3 6 29.81 1009 10 16 N/A
12:35 am 00:35 Clear 66 19 65 18.3 96 96 N N/A 29.82 1010 7 11 N/A
12:55 am 00:55 Mostly Cloudy 65 18.4 65 18.1 98 98 N N/A 29.82 1010 10 16 N/A
1:15 am 01:15 Partly Cloudy 66 18.8 65 18.5 98 98 N N/A 29.82 1010 7 11 N/A
1:35 am 01:35 Mostly Cloudy 65 18.6 65 18.3 98 98 N N/A 29.82 1010 10 16 N/A
1:55 am 01:55 Partly Cloudy 65 18.5 65 18.2 98 98 N N/A 29.82 1010 10 16 N/A
2:15 am 02:15 Clear 64 17.9 64 17.7 99 99 N N/A 29.81 1009 7 11 N/A
2:35 am 02:35 Clear 65 18.1 64 17.9 99 99 N N/A 29.81 1009 10 16 N/A
2:55 am 02:55 Clear 64 18 64 17.9 99 99 N N/A 29.81 1009 10 16 N/A
3:15 am 03:15 Clear 65 18.2 64 18 99 99 N N/A 29.81 1009 10 16 N/A
3:35 am 03:35 Clear with Mist and Fog 63 17.4 63 17.2 99 99 N N/A 29.81 1010 7 11 N/A
3:55 am 03:55 Mostly Cloudy with Mist and Fog 64 17.6 64 17.5 99 99 SW 5 7 29.81 1009 7 11 N/A
4:15 am 04:15 Cloudy 66 18.8 65 18.6 99 99 SSW 6 9 29.82 1010 10 16 N/A
4:35 am 04:35 Partly Cloudy 65 18.5 65 18.2 98 98 SSW 6 9 29.81 1009 10 16 N/A
4:55 am 04:55 Clear 65 18.3 64 18 98 98 N N/A 29.81 1009 10 16 N/A
5:15 am 05:15 Mostly Cloudy with Mist and Fog 64 17.6 63 17.4 99 99 N N/A 29.82 1010 1 2 N/A
5:35 am 05:35 Mostly Cloudy with Fog 64 17.5 63 17.3 99 99 N N/A 29.82 1010 1 1 N/A
5:55 am 05:55 Mostly Cloudy with Fog 64 17.6 64 17.5 99 99 N N/A 29.82 1010 0 0 N/A
6:15 am 06:15 Mostly Cloudy with Mist and Fog 63 17.2 63 17.1 99 99 N N/A 29.82 1010 1 2 N/A
6:35 am 06:35 Mostly Cloudy with Mist and Fog 63 17.3 63 17.2 99 99 N N/A 29.83 1010 1 1 N/A
6:55 am 06:55 Mostly Cloudy with Mist and Fog 62 16.7 62 16.6 99 99 N N/A 29.83 1010 1 2 N/A
7:15 am 07:15 Partly Cloudy with Mist and Fog 64 17.6 64 17.5 99 99 N N/A 29.85 1011 5 8 N/A
7:35 am 07:35 Cloudy with Mist and Fog 64 17.9 64 17.8 99 99 N N/A 29.85 1011 7 11 N/A
7:55 am 07:55 Partly Cloudy with Mist and Fog 65 18.4 65 18.2 99 99 N N/A 29.86 1011 5 8 N/A
8:15 am 08:15 Partly Cloudy with Mist and Fog 66 19 66 18.8 99 99 N N/A 29.86 1011 7 11 N/A
8:35 am 08:35 Sunny 67 19.7 66 19.1 96 96 N N/A 29.86 1011 7 11 N/A
8:55 am 08:55 Sunny 70 21.3 67 19.5 90 90 S 3 6 29.85 1011 10 16 N/A
9:15 am 09:15 Sunny 71 21.6 66 18.8 84 84 ESE 5 7 29.86 1011 10 16 N/A
9:35 am 09:35 Sunny 72 22.4 66 19 81 81 ENE 6 9 29.86 1011 10 16 N/A
9:55 am 09:55 Sunny 72 22.3 67 19.4 84 84 SSW 3 6 29.86 1011 10 16 N/A
10:15 am 10:15 Sunny 73 22.8 68 20 84 84 S 3 6 29.86 1011 7 11 N/A
10:35 am 10:35 Sunny 74 23.2 67 19.5 80 80 N N/A 29.87 1011 10 16 N/A
10:55 am 10:55 Sunny 74 23.5 67 19.5 78 78 N N/A 29.87 1011 10 16 N/A
11:15 am 11:15 Sunny 76 24.7 68 20.2 76 76 ENE 3 6 29.86 1011 10 16 N/A
11:35 am 11:35 Sunny 78 25.4 68 20.1 73 73 N 3 6 29.86 1011 10 16 N/A
11:55 am 11:55 Partly Cloudy 78 25.8 67 19.7 69 69 N 5 7 29.86 1011 10 16 N/A
12:15 pm 12:15 Partly Cloudy 80 26.5 66 18.9 63 63 N N/A 29.86 1011 10 16 N/A
12:35 pm 12:35 Cloudy 78 25.8 67 19.3 67 67 SW 3 6 29.86 1011 10 16 N/A
12:55 pm 12:55 Cloudy 78 25.4 68 20.1 73 73 W 3 6 29.86 1011 10 16 N/A
1:15 pm 13:15 Partly Cloudy 78 25.6 67 19.4 69 69 N N/A 29.85 1011 10 16 N/A
1:35 pm 13:35 Sunny 79 26.1 66 18.9 65 65 N N/A 29.85 1011 10 16 N/A
1:55 pm 13:55 Sunny 82 27.8 68 20 63 63 ENE 3 6 29.85 1011 10 16 N/A
2:15 pm 14:15 Sunny 82 27.5 66 19.1 60 60 ESE 3 6 29.85 1011 10 16 N/A
2:35 pm 14:35 Partly Cloudy 81 27.1 66 18.7 60 60 NE 7 11 29.84 1010 10 16 N/A
2:55 pm 14:55 Partly Cloudy 83 28.3 65 18.6 56 56 N N/A 29.84 1010 10 16 N/A
3:15 pm 15:15 Sunny 83 28.5 67 19.3 57 57 NE 3 6 29.83 1010 10 16 N/A
3:35 pm 15:35 Partly Cloudy 83 28.3 65 18.5 55 55 NE 3 6 29.82 1010 10 16 N/A
3:55 pm 15:55 Sunny 83 28.1 65 18.5 56 56 ENE 6 9 29.82 1010 10 16 N/A
4:15 pm 16:15 Sunny 84 29 66 18.9 54 54 E 6 9 29.81 1010 10 16 N/A
4:35 pm 16:35 Partly Cloudy 84 29.1 65 18.1 52 52 ENE 3 6 29.81 1010 10 16 N/A
4:55 pm 16:55 Sunny 84 28.8 67 19.4 57 57 ENE 6 9 29.80 1009 10 16 N/A
5:15 pm 17:15 Partly Cloudy 84 28.7 65 18.4 54 54 SE 7 11 29.80 1009 10 16 N/A
5:35 pm 17:35 Sunny 84 28.7 66 18.9 55 55 ENE 8 13 29.80 1009 10 16 N/A
5:55 pm 17:55 Sunny 83 28.3 67 19.3 58 58 ENE 8 13 29.80 1009 10 16 N/A
6:15 pm 18:15 Sunny 82 27.8 66 18.7 58 58 ENE 6 9 29.80 1009 10 16 N/A
6:35 pm 18:35 Sunny 82 27.7 66 19 59 59 NE 7 11 29.80 1009 10 16 N/A
6:55 pm 18:55 Sunny 81 27 66 18.9 61 61 NNE 8 13 29.81 1009 10 16 N/A
7:15 pm 19:15 Sunny 80 26.5 66 18.9 63 63 NNE 7 11 29.81 1009 10 16 N/A
7:35 pm 19:35 Sunny 79 26.1 66 18.9 65 65 NE 5 7 29.81 1010 10 16 N/A
7:55 pm 19:55 Sunny 78 25.7 66 19 67 67 NE 5 7 29.82 1010 10 16 N/A
8:15 pm 20:15 Sunny 78 25.4 66 19.1 68 68 NNE 3 6 29.82 1010 10 16 N/A
8:35 pm 20:35 Sunny 76 24.5 67 19.4 73 73 NNE 5 7 29.82 1010 10 16 N/A
8:55 pm 20:55 Sunny 75 23.7 67 19.3 76 76 NNE 5 7 29.83 1010 10 16 N/A
9:15 pm 21:15 Clear 74 23.5 66 18.7 75 75 NE 6 9 29.83 1010 10 16 N/A
9:35 pm 21:35 Clear 73 22.6 66 18.7 79 79 NNE 5 7 29.84 1010 10 16 N/A
9:55 pm 21:55 Clear 73 22.7 66 19 80 80 ENE 3 6 29.85 1011 10 16 N/A
10:15 pm 22:15 Clear 73 22.7 65 18.1 75 75 NE 7 11 29.86 1011 10 16 N/A
10:35 pm 22:35 Clear 73 22.8 65 18.3 76 76 NE 6 9 29.86 1011 10 16 N/A
10:55 pm 22:55 Clear 74 23.1 65 18.2 74 74 ENE 10 17 29.87 1011 10 16 N/A
11:15 pm 23:15 Clear 72 22.3 65 18.3 78 78 NE 7 11 29.88 1012 10 16 N/A
11:35 pm 23:35 Clear 72 22.1 65 18.2 79 79 NE 8 13 29.87 1012 10 16 N/A
11:55 pm 23:55 Clear 71 21.5 65 18.3 82 82 NE 6 9 29.87 1012 10 16 N/A

Powered by AerisWeather